Regional Weather Roundup
Issued by NWS Jackson, KY

Home | Current Version | Previous Version | Text Only | Print | Product List | Glossary On
Versions: 1 2 3 4 5 6 7 8 9 10 11 12 13 14 15 16 17 18 19 20 21 22 23 24 25 26 27 28 29 30 31 32 33 34 35 36 37 38 39 40 41 42 43 44 45 46 47 48 49 50
000
ASUS43 KJKL 292119
RWRJKL

EAST KENTUCKY HOURLY WEATHER ROUNDUP
NATIONAL WEATHER SERVICE JACKSON KY
400 PM EST THU JAN 29 2015

NOTE: "FAIR" INDICATES FEW OR NO CLOUDS BELOW 12,000 FEET WITH
NO SIGNIFICANT WEATHER AND/OR OBSTRUCTIONS TO VISIBILITY.

* THESE REPORTS ARE NOT UNDER NWS QUALITY CONTROL AND MAY NOT
  REPORT WEATHER SUCH AS PRECIPITATION AND FOG.

KYZ079-080-083-085-087-088-110-112-115-119-120-292200
...EASTERN KENTUCKY...

CITY           SKY/WX    TMP DP  RH WIND       PRES   REMARKS
JACKSON        CLOUDY    53  37  54 SW8G17    29.90S
LONDON         MOSUNNY   60  35  39 W16G25    29.94R
SOMERSET*      CLOUDY    55  37  50 W14G23    29.97R
MONTICELLO*    PTSUNNY   60  40  47 W20G29    29.99R
MIDDLESBORO*   PTSUNNY   54  36  50 S9        29.98S
HARLAN APT*    PTCLDY    52  32  46 SW5       29.96R
BLACK MTN*       N/A     37  32  81 SW8         N/A  WCI  31
PIKEVILLE APT* CLOUDY    54  36  50 SW7       29.90R
BIG SANDY*     CLOUDY    54  38  54 SW10      29.90R
MOREHEAD APT*  CLOUDY    48  39  71 W10G26    29.95R
ASHLAND*       CLOUDY    54  39  58 W16       29.84
$$

KYZ035-036-041-042-044-050-067-078-099-292200
...CENTRAL KENTUCKY...

CITY           SKY/WX    TMP DP  RH WIND       PRES   REMARKS
MT STERLING*   CLOUDY    46  37  71 NW12G29   29.95R
FLEMING/MASON* CLOUDY    45  37  71 W22G28    29.92R
DANVILLE*      CLOUDY    46  37  71 NW10G20   29.99R
RICHMOND*      CLOUDY    50  39  66 NW23G30   29.95R
LEXINGTON      CLOUDY    44  34  67 W21G35    29.98R
FRANKFORT      CLOUDY    43  33  68 W18G26    29.99R
$$

KYZ091>093-OHZ055-061-077-WVZ005-015-034-035-042-292200
...SOUTHERN OHIO/WEST VIRGINIA...

CITY           SKY/WX    TMP DP  RH WIND       PRES   REMARKS
COVINGTON      CLOUDY    39  32  76 W25G35    29.95R WCI  28
COLUMBUS       DRIZZLE   37  34  87 W20G29    29.83R FOG     WCI  27
DAYTON         LGT RAIN  36  33  89 W21G29    29.90R WCI  25
WILMINGTON     CLOUDY    37  32  82 W25G37    29.88R WCI  25
HUNTINGTON     CLOUDY    51  37  58 SW10      29.85S
CHARLESTON     CLOUDY    49  35  58 S10       29.87S
PINEVILLE*     SUNNY     53  35  50 MISG      29.95F
BECKLEY        CLOUDY    48  30  49 SW9       29.90F
BLUEFIELD      PTSUNNY   50  28  42 SW16G24   29.92F
$$

VAZ002-007-008-TNZ017-027-036-066-071-292200
...SOUTHWEST VIRGINIA/EAST TENNESSEE...

CITY           SKY/WX    TMP DP  RH WIND       PRES   REMARKS
WISE*          SUNNY     46  30  53 SW16G25   29.95R
JONESVILLE*    CLEAR     52  36  54 SW17      30.00S
ABINGDON*      MOSUNNY   50  30  46 W12G20    29.97S
BRISTOL        MOSUNNY   48  32  53 SW6       30.00S
KNOXVILLE      MOSUNNY   56  35  45 SW28      30.01S
OAK RIDGE      SUNNY     56  34  43 SW14G24   30.02S
CROSSVILLE     SUNNY     57  37  47 W16G26    30.01R
NASHVILLE      PTSUNNY   64  42  44 W9G17     30.01R
$$

...KEY TO REMARKS...
VSB - VISIBILITY IN MILES
WCI - WIND CHILL INDEX
HX  - HEAT INDEX

$$


USA.gov is the U.S. government's official web portal to all federal, state and local government web resources and services.